Tracking 28920 objects as of 26-May-2024
HD Live streaming from Space Station
objects crossing your sky now

STARLINK-31731

Track STARLINK-31731 now!
10-day predictions


NORAD ID: 59498
Int'l Code: 2024-071Q
Perigee: 450.1 km
Apogee: 452.2 km
Inclination: 43.0 °
Period: 93.5 minutes
Semi major axis: 6822 km
RCS: Unknown
Launch date: April 13, 2024
Source: United States (US)
Launch site: AIR FORCE EASTERN TEST RANGE (AFETR)
Your satellite tracking list
Your tracking list is empty




NASA's NSSDC Master Catalog

Two Line Element Set (TLE):
1 59498U 24071Q   24147.35901389  .00035997  00000-0  86446-3 0  9999
2 59498  43.0014 106.7317 0001498 273.8610  86.2075 15.40715994  7946
Source of the keplerian elements: AFSPC